User: anonymous   Login
Location: Unspecified
(0.0000°N, 0.0000°E)
Time: 21:27:10
(UTC+00:00)
Language:

BEESAT 3 - Orbit

View from above orbital plane
View from above orbital plane
View from above satellite
View from above satellite

Ground track
Ground track

The orbit data is extracted from the following two-line orbital elements,

1 39134U 13015E   19144.36027955  .00000963  00000-0  53470-4 0  9997
2 39134  64.8626 102.5016 0028530 308.7579  51.0999 15.20096365336749
Epoch (UTC): 24 May 2019 08:38:48
Eccentricity: 0.0028530
inclination: 64.8626°
perigee height: 486 km
apogee height: 525 km
right ascension of ascending node: 102.5016°
argument of perigee: 308.7579°
revolutions per day: 15.20096365
mean anomaly at epoch: 51.0999°
orbit number at epoch: 33674

The dashed part of the orbit path shows where the satellite is in the earth's shadow,  

DLR